Weather History for Gonzales, LA

Change the Weather History Date:

Tuesday, October 22, 2013

  Actual Average (KBTR) Record (KBTR)
Temperature  
Mean Temperature 68 °F 68 °F  
Max Temperature 78 °F 79 °F 90 °F (1934)
Min Temperature 57 °F 56 °F 39 °F (1976)
Degree Days  
Heating Degree Days 0 2  
Month to date heating degree days 21  
Since 1 July heating degree days 23  
Cooling Degree Days 2 4  
Month to date cooling degree days 145  
Year to date cooling degree days 2716  
Growing Degree Days 18 (Base 50)    
Moisture  
Dew Point 61 °F    
Average Humidity 82    
Maximum Humidity 98    
Minimum Humidity 54    
Precipitation  
Precipitation 0.00 in 0.16 in 4.70 in (1984)
Month to date precipitation 3.31  
Year to date precipitation 49.56  
Snow  
Snow 0.00 in - - ()
Month to date snowfall  
Since 1 July snowfall  
Since 1 September snowfall  
Snow Depth -    
Sea Level Pressure  
Sea Level Pressure 29.98 in    
Wind  
Wind Speed 3 mph (NW)    
Max Wind Speed 12 mph    
Max Gust Speed 17 mph    
Visibility 10 miles    
Events      
T = Trace of Precipitation, MM = Missing Value Source: NWS Daily Summary

Daily Weather History Graph

Daily Weather History Graph

Search for Another Location

Airport:

Trip Planner

Search our weather history database for the weather conditions in past years. The results will help you decide how hot, cold, wet, or windy it might be!

Date:

Astronomy

Oct. 22, 2013 Rise Set
Actual Time 7:10 AM CDT 6:25 PM CDT
Civil Twilight 6:46 AM CDT 6:49 PM CDT
Nautical Twilight 6:18 AM CDT 7:17 PM CDT
Astronomical Twilight 5:50 AM CDT 7:45 PM CDT
Moon 9:16 PM CDT (10/22) 10:28 AM CDT (10/22)
Length of Visible Light 12h 03m
Length of Day
11h 14m
Waning Gibbous, 86% of the Moon is Illuminated
Oct 22
Waning Gibbous
Oct 26
Last Quarter
Nov 3
New
Nov 9
First Quarter
Nov 17
Full

Hourly Weather History & Observations

Time (CDT) Temp. Dew Point Humidity Pressure Visibility Wind Dir Wind Speed Gust Speed Precip Events Conditions
12:15 AM 63.1 °F 62.2 °F 97% 29.98 in 7.0 mi Calm Calm - N/A   Overcast
12:35 AM 63.5 °F 62.6 °F 97% 29.98 in 10.0 mi Calm Calm - N/A   Overcast
12:55 AM 63.5 °F 62.2 °F 96% 29.98 in 10.0 mi Calm Calm - N/A   Mostly Cloudy
1:15 AM 62.8 °F 62.2 °F 98% 29.98 in 7.0 mi Calm Calm - N/A   Overcast
1:35 AM 63.5 °F 62.6 °F 97% 29.98 in 10.0 mi Calm Calm - N/A   Overcast
1:55 AM 63.5 °F 62.6 °F 97% 29.97 in 10.0 mi Calm Calm - N/A   Overcast
2:15 AM 63.0 °F 62.2 °F 97% 29.98 in 7.0 mi NNW 3.5 mph - N/A   Overcast
2:35 AM 63.5 °F 62.6 °F 97% 29.98 in 7.0 mi Calm Calm - N/A   Overcast
2:55 AM 63.5 °F 62.6 °F 97% 29.98 in 7.0 mi Calm Calm - N/A   Overcast
3:15 AM 63.5 °F 62.6 °F 97% 29.98 in 7.0 mi NNW 3.5 mph - N/A   Overcast
3:35 AM 63.5 °F 62.6 °F 97% 29.97 in 7.0 mi Calm Calm - N/A   Overcast
3:55 AM 63.5 °F 62.6 °F 97% 29.96 in 10.0 mi Calm Calm - N/A   Overcast
4:15 AM 63.5 °F 62.6 °F 97% 29.96 in 10.0 mi NNW 3.5 mph - N/A   Overcast
4:35 AM 63.5 °F 62.6 °F 97% 29.96 in 10.0 mi Calm Calm - N/A   Overcast
4:55 AM 63.7 °F 62.6 °F 96% 29.96 in 10.0 mi Calm Calm - N/A   Overcast
5:15 AM 63.3 °F 62.1 °F 96% 29.96 in 10.0 mi Calm Calm - N/A   Mostly Cloudy
5:35 AM 63.7 °F 62.6 °F 96% 29.96 in 10.0 mi Calm Calm - N/A   Overcast
5:55 AM 63.5 °F 62.6 °F 97% 29.97 in 10.0 mi Calm Calm - N/A   Overcast
6:15 AM 63.5 °F 62.4 °F 96% 29.97 in 10.0 mi Calm Calm - N/A   Overcast
6:35 AM 63.5 °F 62.2 °F 96% 29.96 in 10.0 mi Calm Calm - N/A   Overcast
6:55 AM 63.5 °F 62.1 °F 95% 29.96 in 10.0 mi North 3.5 mph - N/A   Mostly Cloudy
7:15 AM 63.1 °F 61.7 °F 95% 29.96 in 10.0 mi North - - N/A   Scattered Clouds
7:35 AM 63.0 °F 61.3 °F 94% 29.96 in 10.0 mi Calm Calm - N/A   Scattered Clouds
7:55 AM 63.1 °F 61.7 °F 95% 29.97 in 10.0 mi Calm Calm - N/A   Scattered Clouds
8:15 AM 63.5 °F 61.7 °F 94% 29.98 in 10.0 mi Calm Calm - N/A   Clear
8:35 AM 64.4 °F 61.5 °F 90% 29.98 in 10.0 mi Calm Calm - N/A   Clear
8:55 AM 64.6 °F 61.2 °F 89% 29.99 in 10.0 mi Calm Calm - N/A   Clear
9:15 AM 66.6 °F 61.9 °F 85% 29.99 in - Calm Calm - N/A   Clear
9:35 AM 67.6 °F 61.9 °F 82% 29.99 in - North 3.5 mph - N/A   Clear
9:55 AM 69.6 °F 63.0 °F 79% 29.99 in 10.0 mi NNW 8.1 mph - N/A   Clear
10:15 AM 70.7 °F 63.3 °F 77% 29.99 in 10.0 mi NNW 4.6 mph - N/A   Clear
10:35 AM 71.6 °F 63.1 °F 75% 29.99 in 10.0 mi North 8.1 mph - N/A   Clear
10:55 AM 72.5 °F 62.6 °F 71% 30.00 in - NNW 6.9 mph - N/A   Clear
11:15 AM 73.6 °F 61.9 °F 67% 29.99 in 10.0 mi NNW 8.1 mph - N/A   Clear
11:35 AM 73.8 °F 61.7 °F 66% 30.00 in 10.0 mi North 4.6 mph - N/A   Clear
11:55 AM 74.5 °F 60.1 °F 61% 29.99 in - NW 9.2 mph - N/A   Clear
12:15 PM 74.8 °F 60.4 °F 61% 29.98 in - NNW 6.9 mph - N/A   Clear
12:35 PM 75.4 °F 58.5 °F 56% 29.98 in 10.0 mi NW 6.9 mph - N/A   Clear
12:55 PM 76.1 °F 58.6 °F 55% 29.97 in 10.0 mi North 4.6 mph - N/A   Clear
1:15 PM 76.8 °F 59.2 °F 54% 29.97 in - North 5.8 mph - N/A   Clear
1:35 PM 77.0 °F 60.1 °F 56% 29.96 in - WNW 8.1 mph - N/A   Clear
1:55 PM 76.8 °F 58.8 °F 54% 29.95 in 10.0 mi NW 9.2 mph - N/A   Clear
2:15 PM 77.2 °F 59.5 °F 54% 29.94 in - NW 5.8 mph - N/A   Clear
2:35 PM 77.7 °F 59.7 °F 54% 29.94 in 10.0 mi NNW 8.1 mph - N/A   Scattered Clouds
2:55 PM 78.1 °F 60.8 °F 55% 29.94 in 10.0 mi NW 6.9 mph - N/A   Scattered Clouds
3:15 PM 77.7 °F 61.0 °F 56% 29.93 in - WNW 8.1 mph - N/A   Scattered Clouds
3:35 PM 78.1 °F 61.3 °F 56% 29.93 in - NW 6.9 mph - N/A   Scattered Clouds
3:55 PM 75.9 °F 61.5 °F 61% 29.94 in 10.0 mi NW 6.9 mph - N/A   Mostly Cloudy
4:15 PM 75.0 °F 61.9 °F 64% 29.94 in 10.0 mi NW 5.8 mph - N/A   Mostly Cloudy
4:35 PM 75.7 °F 62.1 °F 62% 29.94 in - NNW 6.9 mph - N/A   Overcast
4:55 PM 75.7 °F 62.6 °F 64% 29.94 in - NW 9.2 mph - N/A   Mostly Cloudy
5:15 PM 74.1 °F 63.5 °F 69% 29.94 in - WNW 9.2 mph - N/A   Mostly Cloudy
5:35 PM 73.0 °F 63.5 °F 72% 29.95 in 10.0 mi WNW 6.9 mph - N/A   Mostly Cloudy
5:55 PM 71.6 °F 62.8 °F 74% 29.95 in 10.0 mi NW 9.2 mph - N/A   Scattered Clouds
6:15 PM 70.2 °F 62.6 °F 77% 29.96 in 10.0 mi NW 11.5 mph - N/A   Scattered Clouds
6:35 PM 68.7 °F 62.2 °F 80% 29.97 in 10.0 mi WNW 9.2 mph - N/A   Scattered Clouds
6:55 PM 68.0 °F 61.7 °F 80% 29.98 in 10.0 mi NW 9.2 mph - N/A   Mostly Cloudy
7:15 PM 68.0 °F 60.8 °F 78% 29.98 in 10.0 mi NNW 11.5 mph 17.3 mph N/A   Overcast
7:35 PM 67.1 °F 59.9 °F 78% 29.99 in 10.0 mi NNW 6.9 mph - N/A   Mostly Cloudy
7:55 PM 66.2 °F 59.2 °F 78% 29.99 in 10.0 mi NNW 6.9 mph - N/A   Scattered Clouds
8:15 PM 65.3 °F 59.2 °F 81% 30.00 in - NNW 8.1 mph - N/A   Clear
8:35 PM 64.2 °F 58.8 °F 83% 30.00 in - NW 3.5 mph - N/A   Clear
8:55 PM 63.0 °F 59.0 °F 87% 30.01 in 10.0 mi NNW 3.5 mph - N/A   Clear
9:35 PM 60.8 °F 58.5 °F 92% 30.02 in 10.0 mi NNW 3.5 mph - N/A   Clear
10:15 PM 59.7 °F 58.3 °F 95% 30.03 in 10.0 mi NW 3.5 mph - N/A   Clear
10:35 PM 59.5 °F 58.1 °F 95% 30.03 in 10.0 mi Calm Calm - N/A   Clear
10:55 PM 58.6 °F 57.7 °F 97% 30.03 in 10.0 mi Calm Calm - N/A   Clear
11:15 PM 58.1 °F 57.2 °F 97% 30.02 in 7.0 mi Calm Calm - N/A   Clear
11:35 PM 57.7 °F 57.2 °F 98% 30.03 in 10.0 mi Calm Calm - N/A   Clear
11:55 PM 57.7 °F 57.0 °F 97% 30.02 in 10.0 mi Calm Calm - N/A   Clear